User: anonymous   Login
Location: Unspecified
(0.0000°N, 0.0000°E)
Time: 23:14:52
(UTC+01:00)
Language:

YAOGAN 3 - Orbit

View from above orbital plane
View from above orbital plane
View from above satellite
View from above satellite

Ground track
Ground track

The orbit data is extracted from the following two-line orbital elements,

1 32289U 07055A   16345.51099015  .00000476  00000-0  68641-4 0  9996
2 32289  97.9938 341.9982 0001193  95.1302 265.0039 14.80769293490817
Epoch (UTC): 10 December 2016 12:15:49
Eccentricity: 0.0001193
inclination: 97.9938°
perigee height: 626 km
apogee height: 628 km
right ascension of ascending node: 341.9982°
argument of perigee: 95.1302°
revolutions per day: 14.80769293
mean anomaly at epoch: 265.0039°
orbit number at epoch: 49081

The dashed part of the orbit path shows where the satellite is in the earth's shadow,  

DLR